Погода в Рославле

Хотите узнать прогноз погоды в Рославле? Тогда Вам сюда: Погода в Рославле

Поиск расширенной информации на нашем сайте:

Полезная информация:

Новости сайта



02.01.2020
Опубликован Долгосрочный прогноз погоды по городам России и ближнего зарубежья на январь 2020 года.
Карты: Прогноз на январь и февраль 2020 года, Сравнение прогнозируемой аномалии приземной температуры воздуха на январь 2020 года по разным моделям.




Погода в Рославле - сегодня

Время (UTC), дата Ветер
(°,м/с) 
Видим.   Явления Облачность Т
(°С)
Тd
(°С)
f(%) Тe
(°С)
Pmin
(гПа)
dP
(гПа)
Po
(мм)
O2
(г/м3)
Тmin Tmax R s Состояние
почвы
00 16.01.22 310 (СЗ) 6{11}  20000 м    10/10 500 м 
[Sc]
-0.2 -5 70 -4  1011.1  1.2  737  298           
03 16.01.22 310 (СЗ) 5{13}  20000 м  позёмок  10/10 540 м 
[Sc]
-0.9 -5.4 71 -4  1012.1  0.9  738  299  -0.9         
06 16.01.22 310 (СЗ) 6-10{11}  20000 м    8/8 600 м 
[Sc]
-2.6 -7.5 69 -7  1014  1.6  739  301  -2.6      26  неравномерный
сухой снег
100% 
09 16.01.22 310 (СЗ) 5{10}  20000 м    9/0 
[Sc]
-2.6 -6.8 73 -6  1015.2  1.2  740  302           
12 16.01.22 280 (З) 4{10}  20000 м    1/1 600 м 
[Cu hum]
-2 -7.1 68 -5  1014.3  -0.8  740  301           
15 16.01.22 240 (ЮЗ) 20000 м    ясно 
-5.3 -8 81 -8  1013.8  -0.8  739  304           
18 16.01.22 220 (ЮЗ) 20000 м    ясно 
-6.1 -8.2 85 -9  1011.5  -2.4  737  305    -2       
21 16.01.22 230 (ЮЗ) 20000 м    9/0 верхняя 
[Cs]
-6.4 -7.6 91 -10  1007.9  -3.5  735  304           
00 17.01.22 210 (ЮЗ) 20000 м    10/0 верхняя 
[Cs]
-4.2 -5.7 89 -8  1003  -4.5  731  300           
03 17.01.22 210 (ЮЗ) 5{10}  4000 м  слаб. снег  10/10 400 м 
[Frnb|Ns]
-3.7 -4.8 92 -7  998.1  -4.7  728  298  -6.4    0.3     
06 17.01.22 220 (ЮЗ) 6-10{11}  20000 м  в посл. час снег  10/10 400 м 
[St]
-3.1 -4.3 91 -7  994.1  -3.8  725  296  -6.4    26  неравномерный
сухой снег
100% 
09 17.01.22 220 (ЮЗ) 6{11}  4000 м  снег  10/10 210 м 
[Frnb|Ns]
-1.8 -2.6 94 -6  990.3  -3.5  722  293           
12 17.01.22 200 (Ю) 6{11}  1000 м  снег  10/10 210 м 
[Frnb|Ns]
-0.6 -1 97 -4  986.2  -3.9  719  290           
15 17.01.22 220 (ЮЗ) 5{10}  1000 м  слаб. снег  10/10 200 м 
[Frnb|Ns]
-0.2 -0.3 99 -3  984.1  -1.9  718  289         
18 17.01.22 250 (З) 10 км  в посл. час снег  10/10 400 м 
[St]
-0 -0.1 99 -3  985.2  719  289    -0     
21 17.01.22 290 (З) 7-11{11}  1000 м  ливневой снег  10/10 300 м кучево-дожд. 
[Cb cap]
-1.1 -1.2 99 -5  987.2  1.8  720  291           
00 18.01.22 330 (СЗ) 9-14{19}  1000 м  ливневой снег  10/10 300 м кучево-дожд. 
[Cb cap]
-4.2 -5 94 -10  993.2  5.5  724  297           
03 18.01.22 330 (СЗ) 8-13{19}  2000 м  снег  10/6 300 м средняя 
[Frnb|As trans]
-5.5 -7.4 86 -11  998.3  4.8  728  300  -5.5       
06 18.01.22 330 (СЗ) 8-12{14}  20000 м  позёмок{снег}  9/0 средняя 
[Ac trans]
-6.6 -9.7 79 -12  1003.3  4.7  731  303  -6.6    34  неравномерный
сухой снег
100% 
09 18.01.22 340 (С) 7-12{14}  20000 м  позёмок{ливн. осадки}  8/5 600 м средняя, верхняя 
[Cu hum|Ac trans|Ci fib]
-6.4 -10 76 -12  1007.7  4.3  734  304           
12 18.01.22 340 (С) 7-10{14}  4000 м  слаб. снег{ливн. осадки}  10/4 300 м средняя 
[Frnb|Ac As]
-6.1 -9 80 -11  1011.4  3.6  737  305           
15 18.01.22 330 (СЗ) 7-11{12}  4000 м  слаб. снег  10/0 средняя 
[Ac As]
-6.9 -9.1 84 -12  1015.8  4.1  740  307      0.3     
18 18.01.22 350 (С) 5-10{12}  20000 м  {снег}  9/9 660 м 
[Sc]
-6.6 -9.8 78 -11  1018.7  2.8  742  308    -6  0.3     
21 18.01.22 340 (С) 4{10}  20000 м    9/9 660 м 
[Sc]
-8.1 -10.9 80 -12  1021.1  2.2  744  310           
00 19.01.22 330 (СЗ) 20000 м    9/6 600 м средняя 
[Sc|Ac trans]
-10.8 -11.9 92 -13  1022.3  0.8  745  314           
Время (UTC), дата Ветер
(°,м/с) 
Видим.   Явления Облачность Т
(°С)
Тd
(°С)
f(%) Тe
(°С)
Pmin
(гПа)
dP
(гПа)
Po
(мм)
O2
(г/м3)
Тmin Tmax R s Состояние
почвы

Для получения пояснительной информации подведите курсор к названию столбца.

ПОГОДА в Рославле - архив

Всё, что Вы хотите узнать о погоде в Рославле - удобно и подробно!

Выберите нужную дату (начиная с 1 января 2019* года) и нажмите кнопку "Найти".
Будут отображены архивные сводки погоды по пункту Рославль, начиная с указанной даты.


Отображать данные в формате CSV (для использования в таблицах Excel)


Внимание! Наш архив погоды предназначен исключительно для личного некоммерческого использования в познавательных целях. Если Вам необходимы официальные справки о состоянии погоды (для производственных, юридических, коммерческих и т.п. целей), обращайтесь в органы Росгидромета.

*Примечание: данная дата относится к архиву по метеостанциям СССР (Россия, СНГ, Балтия).
Архив по метеостанциям Зарубежной Европы и Азии (кроме Китая) хранится 10 дней, по другим регионам земного шара (Китай, Африка, Америка, Австралия, Океания) - 1 день.

Рославль - район местоположения метеостанции


Название, широта, долгота, высота метеостанции:
Рославль 53.9°ш. 32.8°д. 224 м над ур. моря [Российская Федерация]

Дополнительная информация

В oтличие oт бoльшинства пoгoдных сайтoв мы публикуем пoдрoбную метеoинфoрмацию в детальнoм прoфессиoнальнoм фoрмате.

Характеристики температуры и влажнoсти вoздуха измеряются на высoте 2 м в тени вдали oт зданий и деревьев.
Скoрoсть ветра измеряется на высoте 10 м (на урoвне рoста челoвека скoрoсть ветра ниже в 1.5-2 раза). Если метеoстанция нахoдится в гoрoде или в лесу, тo скoрoсть ветра занижена на 2-4 м/с пo сравнению с oткрытым местoм. Скoрoсть ветра над акватoриями крупных рек и oзёр, а также на вершинах хoлмoв на 2-5 м/с выше, чем в oбычных услoвиях.
Атмoсфернoе давление в разных тoчках местнoсти мoжет значительнo oтличаться oт давления на метеoстанции, в зависимoсти oт услoвий рельефа (при пoдъёме на 10 м давление пoнижается примернo на 1 мм рт.ст.).